Zurück zum Katalog

STARLINK-5628

AktivKommunikationVLEO
NORAD 55466·PAYLOAD·🇺🇸 United States

Gestartet Feb 2, 2023 von Cape Canaveral Space Force Station

Loading…

Nächste Überflüge (nächste 24 Stunden)

TLE

AktuellSource: CelesTrak SupGP

Epoche: Sep 14, 2026, 20:55 UTC

1 55466C 23015T   26257.87201389 -.00039287  00000+0 -14230-2 0  2576
2 55466  43.0032 340.4423 0001366 272.6952  84.1994 15.27598377    19

Verfolge STARLINK-5628 in Echtzeit mit AllMySat

Download on the App Store